Погода Ростов Великий

Погода Ростов Великий : погода сейчас, прогноз погоды и архив. Всё, что Вы хотите узнать о погоде Ростов Великий!

Хотите узнать прогноз погоды Ростов Великий? Тогда Вам сюда: Погода Ростов Великий

Поиск расширенной информации на нашем сайте:

Полезная информация: Игровые наборы sylvanian families.

Другие новости

Новости СМИ2

Главная страница сайта

Новости сайта

02.10.2013

Напоминаем, что на нашем новом сайте вы можете получить высокодетализированные прогнозы погоды по пунктам России, СНГ и мира (включающие важные для авиации метеовеличины, такие как направление и скорость ветра, видимость, явления погоды, количество и форма облачности, нижняя и верхняя граница облачности), а также ознакомиться с разнообразными материалами по авиационной метеорологии и подборкой полезных ссылок на эту тему.

Сайт Метеоцентр.Азия посвящён разработке технологий оптимизации авиаметеорологического обслуживания, включая проектирование и перспективное создание нескольких автоматизированных авиаметеорологических систем:
- система выпуска высокодетальных прогностических карт явлений погоды для нижнего воздушного пространства по России и ближнему зарубежью;
- система верификации прогнозов TAF (выпускаемых синоптиками официальных АМСГ РФ и ближнего зарубежья) и AUTOTAF (выпускаемых сайтом Метеоцентр.Азия) - выявление ошибок, онлайн-сопоставление с фактической погодой METAR, автоматическое внесение коррективов в прогнозы при резком отклонении фактической погоды от прогноза, подсчёт оправдываемости прогнозов по элементам и в целом;
- система обработки, анализа и отображения авиаметеорологической информации для применения провайдерами метеорологической информации.

Рекомендуем: Под ключ организация корпоративов на природе "lasertag".

Погода Ростов Великий - сегодня

Время (UTC), дата Ветер
(°,м/с) 
Видим.   Явления Облачность Т
(°С)
Тd
(°С)
f(%) Тe
(°С)
Pmin
(гПа)
dP
(гПа)
Po
(мм)
O2
(г/м3)
Тmin Tmax R s Состояние
почвы
09 22.03.17 190 (Ю) 50000 м    9/9 1000 м 
[Sc]
+4.7 +2.1 83 +4  1016.9  753  298           
12 22.03.17 200 (Ю) 50000 м    9/9 1000 м 
[Sc]
+7.1 +1.7 68 +7  1016.3  -0.5  753  295           
15 22.03.17 190 (Ю) 50000 м    6/4 1000 м средняя 
[Sc|Ac trans]
+6 +2.1 76 +5  1015.4  -1  752  296    +7.5       
18 22.03.17 200 (Ю) 50000 м    4/4 1000 м 
[Sc]
+2.9 +1.1 88 +2  1015.2  -0.3  752  300           
21 22.03.17 210 (ЮЗ) 50000 м    6/6 1000 м 
[Sc]
+3.6 +2.1 90 +4  1014.5  -0.7  752  299           
00 23.03.17 340 (С) 5000 м  слаб. ливневой дождь  10/10 600 м кучево-дожд. 
[Cb cap]
+2.9 +1.9 93 +2  1015.9  1.4  753  300           
03 23.03.17 210 (ЮЗ) 30000 м  {ливн. осадки}  10/10 600 м кучево-дожд. 
[Cb cap]
+1.4 +0.6 94 +2  1016.4  0.4  753  302  +1.4    мокрый или
старый снег
50-90% 
06 23.03.17 300 (СЗ) 50000 м    1/0 средняя 
[Ac trans]
+3.7 +2.3 91 +2  1017.5  1.2  754  299  +0.3         
09 23.03.17 290 (З) 50000 м    3/3 1000 м 
[Sc]
+7.4 -0.7 56 +6  1018.1  0.7  754  296           
12 23.03.17 290 (З) 5{10}  50000 м    3/3 600 м 
[Cu hum]
+8.6 -2.8 45 +7  1017.9  0.1  754  295           
15 23.03.17 280 (З) 2{10}  50000 м    3/3 600 м 
[Sc]
+7 -2.3 52 +7  1018.4  0.4  755  297    +8.9       
18 23.03.17 290 (З) 2{13}  50000 м  {ливн. осадки}  ясно 
+2.8 -1.5 73 +2  1020.6  756  302           
21 23.03.17 300 (СЗ) 50000 м    ясно 
+1.6 -2.5 74 1021.6  757  303           
00 24.03.17 220 (ЮЗ) 50000 м    ясно 
-1.9 -3.7 87 -1  1021.6  -0.2  757  307           
03 24.03.17 230 (ЮЗ) 50000 м    1/0 верхняя 
[Ci fib]
-1.4 -3.1 88 -1  1021.4  -0.2  756  307  -2.4    0.1  мокрый или
старый снег
10-40% 
06 24.03.17 230 (ЮЗ) 50000 м    8/4 1000 м средняя 
[Sc|Ac trans]
+1.7 -2 76 +1  1019.4  -1.7  755  303           
09 24.03.17 240 (ЮЗ) 50000 м    9/3 600 м средняя 
[Sc|As trans]
+6.9 -3.1 49 +6  1016.7  -2.5  753  296           
12 24.03.17 270 (З) 3{11}  20000 м  слаб. ливневой дождь  10/10 600 м кучево-дожд. 
[Cb cap]
+4.7 -0.3 70 +4  1015.1  -1.6  752  298           
15 24.03.17 220 (ЮЗ) 20000 м  {ливн. осадки}  10/10 600 м кучево-дожд. 
[Cb cap]
+1.5 +0.6 94 +1  1013.4  -1.8  751  301    +7.7     
18 24.03.17 200 (Ю) 30000 м  в посл. час ливневой снег  10/10 600 м кучево-дожд. 
[Cb cap]
+0 -0.5 96 +1  1013.1  -0.5  750  302           
21 24.03.17 330 (СЗ) 50000 м    ясно 
-1.5 -3.1 89 -2  1012.6  -0.5  750  304           
00 25.03.17 320 (СЗ) 50000 м    ясно 
-3 -6.3 78 -4  1012.5  -0.2  750  306           
03 25.03.17 320 (СЗ) 50000 м    10/10 600 м 
[Sc]
-2.9 -5.5 82 -5  1012  -0.5  749  306  -3.6    0.4  мокрый или
старый снег
10-40% 
06 25.03.17 340 (С) 30000 м    10/10 600 м 
[Sc]
-1.1 -4.6 77 -4  1011.8  -0.5  749  304           
09 25.03.17 310 (СЗ) 30000 м    9/9 600 м 
[Sc]
+0.5 -3.7 73 -2  1011.3  -0.3  749  302           
Время (UTC), дата Ветер
(°,м/с) 
Видим.   Явления Облачность Т
(°С)
Тd
(°С)
f(%) Тe
(°С)
Pmin
(гПа)
dP
(гПа)
Po
(мм)
O2
(г/м3)
Тmin Tmax R s Состояние
почвы

Для получения пояснительной информации подведите курсор к названию столбца.

ПОГОДА Ростов Великий - архив

Всё, что Вы хотите узнать о погоде Ростов Великий - удобно и подробно!

Выберите нужную дату (начиная с 1 января 2015* года) и нажмите кнопку "Найти".
Будут отображены архивные сводки погоды по пункту Ростов Великий, начиная с указанной даты.


Отображать данные в формате CSV (для использования в таблицах Excel)


Внимание! Наш архив погоды предназначен исключительно для личного некоммерческого использования в познавательных целях. Если Вам необходимы официальные справки о состоянии погоды (для производственных, юридических, коммерческих и т.п. целей), обращайтесь в органы Росгидромета.

*Примечание: данная дата относится к архиву по метеостанциям СССР (Россия, СНГ, Балтия).
Архив по метеостанциям Зарубежной Европы и Азии (кроме Китая) хранится 10 дней, по другим регионам земного шара (Китай, Африка, Америка, Австралия, Океания) - 1 день.

Ростов Великий - район местоположения метеостанции


Название, широта, долгота, высота метеостанции:
Ростов Великий 57.2°ш. 39.4°д. 101 м над ур. моря [Российская Федерация]

Дополнительная информация

В oтличие oт бoльшинства пoгoдных сайтoв мы публикуем пoдрoбную метеoинфoрмацию в детальнoм прoфессиoнальнoм фoрмате.

Характеристики температуры и влажнoсти вoздуха измеряются на высoте 2 м в тени вдали oт зданий и деревьев.
Скoрoсть ветра измеряется на высoте 10 м (на урoвне рoста челoвека скoрoсть ветра ниже в 1.5-2 раза). Если метеoстанция нахoдится в гoрoде или в лесу, тo скoрoсть ветра занижена на 2-4 м/с пo сравнению с oткрытым местoм. Скoрoсть ветра над акватoриями крупных рек и oзёр, а также на вершинах хoлмoв на 2-5 м/с выше, чем в oбычных услoвиях.
Атмoсфернoе давление в разных тoчках местнoсти мoжет значительнo oтличаться oт давления на метеoстанции, в зависимoсти oт услoвий рельефа (при пoдъёме на 10 м давление пoнижается примернo на 1 мм рт.ст.).